sat.trackr.live / text

‹ back to catalog

BANDWAGON-2 OBJECT V

NORAD 62396 · 2024-247V

PAYLOAD ACTIVE UNKNOWN

§ Identity

Operator
Country
TBD
Launch date
2024-12-21
Launch site
AFWTR
Launch vehicle
Mass (kg)
RCS (m²)

External: N2YO · Heavens-Above · Gunter

§ Orbital elements

Epoch: 2026-05-25T01:30:23.015232Z

Period
92.87 min
Inclination
44.9946°
Eccentricity
0.0007619
Mean motion
15.50495558 rev/d
Perigee alt
410.1 km
Apogee alt
420.5 km
Semi-major
6,793.4 km
B*
7.0466e-4
RAAN
20.5549°
Arg perigee
173.4052°
Mean anomaly
186.6941°
Rev number
7,988

§ Raw data

BANDWAGON-2 OBJECT V1 62396U 24247V   26145.06276638  .00041020  00000+0  70466-3 0  99932 62396  44.9946  20.5549 0007619 173.4052 186.6941 15.50495558 79888

JSON: /api/v1/satellites/62396 · /tle

For live sub-satellite position, see the globe view (requires WebGL).

§ Visibility from observer

Set your observer location to see the next 7 days of passes ≥ 10°. The values pass through the URL so the page stays shareable.

No JS? Fill the form by hand. The geolocation button needs JavaScript.